Location: Newark
(13.8117°N, 3.6025°W)
Time: 18:20:55
(UTC+00:00)

Explorer 11/Cluster Stage 4 - Pass Details

Date: 01 September 2019
Orbit: 467 x 1260 km, 28.8° (Epoch: 21 September)

Event Time Altitude Azimuth Distance (km) Brightness Sun altitude
Rises 13:21:24 0° 293° (WNW) 4,121 10.4 72.7°
Reaches altitude 10° 13:24:15 10° 291° (WNW) 3,199 10.1 72.0°
Maximum altitude 13:32:26 70° 210° (SSW) 1,319 9.7 70.1°
Drops below altitude 10° 13:40:20 10° 127° (SE) 3,089 9.6 68.2°
Sets 13:43:03 0° 125° (SE) 3,973 10.0 67.6°
